Wind_Speed
5 4 4 4 3 3 3 3 3 3 3 3 3 3 2 2 1 1 1 1 1 1 2 2 3 4 4 5 6 6 7 7 7 7 7 7 7 8 8 8 9 9 9
4 4 4 3 3 3 2 3 2 2 3 2 2 2 2 1 1 0 1 2 2 2 2 3 4 5 5 5 6 7 8 8 8 8 9 8 8 8 9 9 9 10 9
3 3 3 3 3 3 3 2 2 2 3 2 2 2 1 2 2 1 1 1 1 2 3 4 4 5 6 6 6 7 8 9 9 9 9 9 10 10 10 10 10 10 10
3 3 3 3 3 3 2 2 1 1 2 2 1 0 1 1 2 2 2 2 2 3 4 5 5 6 6 7 7 8 8 9 10 10 10 10 10 11 10 10 10 10 10
3 3 3 2 2 2 1 1 1 1 1 1 1 1 1 1 2 3 3 4 4 4 5 6 7 7 8 9 9 9 10 10 10 11 11 10 11 11 12 11 12 12 12
2 2 2 2 2 1 0 0 0 0 1 1 2 2 2 2 3 4 4 5 5 6 6 7 8 9 9 10 10 11 11 12 12 12 12 12 12 12 12 12 13 13 13
2 2 2 1 1 1 1 2 2 2 2 3 3 3 3 3 3 4 5 5 6 6 7 8 9 9 10 10 11 12 13 14 13 13 13 13 13 13 13 13 13 13 14
3 3 3 3 2 2 3 3 3 3 4 4 4 4 4 5 5 5 6 6 7 7 8 9 10 10 11 11 11 12 13 14 14 13 13 14 15 15 15 15 14 14 14
4 4 4 4 4 4 4 4 4 4 5 6 6 6 6 6 6 6 7 8 8 9 9 10 11 11 12 12 12 13 13 14 15 14 14 15 16 16 15 15 16 16 16
5 5 6 6 6 6 6 6 6 6 7 7 8 8 8 8 8 8 8 9 9 10 11 11 12 13 13 13 13 14 15 15 15 15 15 16 16 16 16 16 17 17 17
7 8 8 8 8 8 8 8 9 9 9 9 9 10 10 10 10 10 10 10 11 12 13 13 14 14 14 14 14 15 16 16 16 16 16 16 16 16 17 17 17 17 17
9 10 10 11 11 11 11 11 11 11 11 11 11 12 12 12 12 12 13 12 13 13 14 14 15 16 16 15 16 16 17 17 17 16 16 16 16 17 17 17 17 17 18
11 12 12 12 13 13 13 14 14 14 14 13 13 14 13 13 14 14 14 14 14 15 16 16 17 17 17 17 17 17 17 18 18 18 17 17 17 17 17 18 17 17 18
13 13 14 14 14 14 15 16 16 16 16 16 16 16 16 16 16 16 16 17 17 18 18 18 19 18 18 18 18 18 18 18 18 18 18 18 18 17 18 18 18 18 18
16 16 16 16 16 16 16 16 17 17 17 18 18 18 18 18 18 18 18 19 19 19 20 20 20 20 20 20 19 19 20 20 19 19 19 19 19 19 18 18 18 18 18
17 17 17 17 17 17 17 17 17 18 18 19 19 20 20 21 20 20 20 20 20 20 20 21 21 21 22 21 21 21 22 22 21 21 20 20 20 20 20 19 19 19 19
18 18 18 18 18 17 17 18 19 19 20 20 21 21 22 22 22 22 22 22 21 21 21 21 22 22 21 22 22 23 23 23 23 22 22 22 22 21 22 22 21 21 21
18 19 19 19 19 19 19 20 20 21 21 21 22 22 22 23 23 23 23 23 22 22 23 23 23 23 22 22 22 23 23 23 23 23 23 23 22 22 22 22 22 22 22
20 20 20 20 20 21 21 22 22 22 23 23 23 24 24 24 24 25 25 24 24 24 24 24 24 24 24 24 23 23 23 23 23 23 23 23 22 22 22 22 22 21 21
21 21 21 22 22 22 23 23 24 24 25 26 26 25 25 25 25 25 25 25 25 25 26 25 25 24 24 24 24 24 24 24 24 24 24 24 24 24 23 23 23 22 22
23 23 23 24 24 25 25 25 26 26 26 27 27 27 27 26 26 26 26 26 26 27 27 26 25 25 25 26 26 26 26 25 25 25 25 25 25 24 24 24 23 23 23
24 25 25 25 25 26 26 27 28 27 27 28 28 28 28 28 27 27 27 27 27 27 26 26 26 26 27 27 27 27 27 27 26 26 26 26 26 26 25 25 24 24 24
25 26 26 27 27 27 28 28 28 27 27 28 28 28 28 27 27 28 28 28 28 28 28 27 27 27 28 28 28 28 28 28 28 27 27 27 27 27 26 25 25 25 24
26 26 27 28 28 28 29 29 29 29 29 30 29 29 28 28 28 29 28 28 28 28 29 29 29 29 30 29 29 29 29 29 29 29 29 28 28 27 27 26 26 26 25
28 28 28 29 29 30 30 30 29 29 29 29 29 29 29 28 29 29 30 30 29 30 30 30 30 30 31 31 30 30 30 30 30 30 30 29 29 28 27 26 26 26 26
29 30 30 30 30 30 30 30 29 29 29 30 29 29 29 30 30 30 30 30 31 31 31 31 31 31 32 31 31 31 31 30 31 30 30 30 29 29 28 27 27 27 26
Wind_Direction
87 89 84 84 92 103 104 118 131 133 129 141 156 163 154 135 126 103 356 339 340 332 330 321 299 302 304 303 302 301 300 302 305 301 295 289 285 277 278 278 275 278 275
89 86 91 95 97 99 94 89 97 107 133 142 152 157 175 204 224 229 312 311 313 321 319 306 301 309 306 305 299 298 299 296 297 298 296 290 286 279 280 276 277 278 276
75 88 90 92 93 95 99 90 82 110 120 124 136 158 197 229 245 243 284 297 308 311 315 322 322 316 310 304 303 300 300 298 296 296 293 288 286 283 282 279 278 276 275
59 50 57 67 73 79 81 81 91 96 97 110 121 154 239 249 260 247 264 279 290 305 306 311 319 319 315 312 306 305 305 298 296 296 294 288 287 287 288 284 279 275 273
49 46 48 55 75 80 82 92 118 104 89 74 22 354 339 307 305 291 283 287 292 295 302 311 309 309 311 310 308 306 304 304 301 297 294 289 289 287 287 284 280 277 275
46 36 26 35 52 55 48 12 19 42 15 334 339 335 328 323 312 300 293 297 298 299 299 306 310 310 310 312 310 308 306 305 303 297 295 293 290 288 283 279 277 276 273
350 344 6 11 16 2 335 327 329 326 315 315 322 319 317 313 309 306 305 304 304 304 305 308 308 309 309 313 312 309 306 304 303 298 294 292 289 287 283 278 275 273 271
320 322 324 327 320 317 312 302 306 308 307 304 304 305 307 305 305 309 310 307 305 307 306 307 311 310 311 313 311 309 309 307 306 299 294 292 289 286 284 281 278 277 272
298 296 297 301 302 303 302 295 292 294 298 296 294 297 299 299 299 300 300 301 302 305 307 307 310 311 313 315 314 311 311 310 305 299 296 295 291 286 284 282 280 278 275
290 288 292 294 294 294 292 289 286 287 288 289 289 288 288 290 294 294 292 293 296 300 303 305 306 310 312 313 316 314 312 310 306 299 297 295 292 287 284 283 280 279 277
286 286 290 289 288 286 285 284 284 283 284 285 283 284 284 286 286 287 288 291 293 297 300 303 306 308 310 312 314 314 314 310 305 301 298 294 292 289 286 283 278 274 275
288 287 288 287 286 283 282 282 281 279 279 281 280 281 283 283 285 284 285 287 289 292 296 299 302 304 305 307 310 313 314 312 309 303 300 298 294 290 286 283 280 276 273
287 288 288 288 287 285 283 283 280 278 278 279 278 279 280 280 280 281 282 284 285 287 292 295 298 301 303 304 306 309 311 313 311 305 300 297 295 292 287 282 282 278 275
289 291 292 291 289 288 287 284 279 278 278 279 278 278 280 281 279 280 280 281 283 285 288 292 293 295 298 300 303 306 307 309 310 306 303 299 296 293 291 284 281 280 277
290 290 291 290 290 287 288 287 283 282 281 280 278 279 280 281 279 280 281 281 282 283 286 290 291 290 293 295 297 300 303 305 305 304 303 301 299 298 296 291 287 283 281
291 289 287 287 289 287 286 288 287 286 287 284 281 280 279 279 279 280 281 281 281 283 285 287 289 289 291 292 295 297 300 302 302 302 300 298 297 295 294 292 288 286 284
292 290 289 287 287 287 287 287 287 286 286 286 284 282 279 278 279 279 280 279 279 281 283 287 290 292 292 293 293 296 298 299 300 300 298 296 295 294 292 291 290 286 282
289 289 288 287 286 286 286 287 287 286 286 286 285 285 282 280 279 278 279 278 279 281 283 285 287 290 292 293 293 294 296 297 298 299 299 297 295 294 293 292 291 288 284
286 287 286 286 286 287 286 286 286 287 286 286 286 284 283 281 280 280 279 278 279 281 283 284 285 286 288 290 292 295 295 296 297 298 299 298 296 295 294 293 292 289 286
285 287 287 287 287 286 286 286 285 286 287 286 285 284 282 281 280 280 278 277 278 279 282 284 285 286 287 289 291 293 294 294 295 296 297 297 297 296 294 292 290 288 286
285 286 286 287 288 287 287 286 285 285 286 286 285 282 280 279 279 277 276 276 277 279 280 282 284 286 288 289 291 292 293 295 295 295 296 296 296 295 293 293 290 287 285
284 285 286 287 289 288 288 288 286 286 287 286 285 282 279 279 278 277 276 277 278 278 279 281 284 286 286 288 290 291 292 294 294 294 295 295 295 294 293 292 291 289 286
285 286 286 287 288 289 290 289 288 286 288 286 286 283 280 280 279 278 277 278 277 277 279 282 284 285 286 287 288 290 291 293 293 293 293 294 294 293 292 292 290 289 287
286 286 287 290 290 290 290 290 288 286 289 288 287 284 281 279 279 280 279 278 278 279 280 281 283 284 286 288 288 288 289 290 291 291 292 292 292 291 290 290 291 288 285
284 285 287 289 290 289 290 289 287 285 286 288 287 285 281 280 281 280 279 279 279 279 279 280 282 283 285 286 287 288 288 289 289 290 290 290 290 289 289 288 288 286 283
283 284 286 287 289 288 288 288 287 286 286 287 287 287 285 284 282 280 280 279 278 279 279 280 281 282 284 285 285 287 287 288 288 288 288 288 287 286 286 287 286 286 283
Height
5883 5882 5882 5881 5881 5881 5881 5881 5881 5881 5881 5881 5881 5882 5882 5883 5883 5883 5883 5882 5882 5882 5882 5882 5881 5881 5880 5880 5880 5879 5878 5877 5876 5875 5874 5873 5872 5871 5871 5870 5870 5869 5869
5884 5883 5883 5882 5882 5882 5882 5882 5882 5882 5882 5882 5882 5883 5883 5883 5883 5883 5883 5882 5882 5881 5881 5881 5880 5880 5879 5879 5878 5877 5877 5876 5874 5873 5872 5872 5871 5870 5869 5869 5868 5868 5867
5886 5885 5884 5883 5883 5883 5883 5883 5883 5883 5883 5883 5883 5883 5883 5883 5883 5883 5882 5882 5881 5881 5881 5880 5879 5879 5878 5877 5876 5876 5875 5874 5873 5871 5870 5870 5869 5868 5867 5867 5866 5866 5865
5887 5886 5885 5885 5884 5884 5884 5884 5884 5884 5884 5883 5883 5883 5883 5883 5882 5882 5882 5881 5881 5880 5880 5879 5879 5878 5877 5876 5875 5874 5873 5872 5871 5870 5868 5867 5866 5866 5865 5864 5864 5863 5863
5888 5887 5886 5886 5885 5885 5885 5884 5884 5884 5883 5883 5883 5883 5882 5882 5882 5881 5881 5880 5880 5879 5879 5878 5878 5876 5875 5874 5873 5872 5871 5869 5868 5867 5866 5865 5864 5863 5862 5861 5861 5860 5860
5888 5887 5887 5886 5886 5885 5885 5885 5884 5884 5883 5883 5883 5882 5882 5881 5881 5880 5880 5879 5879 5878 5878 5877 5876 5875 5873 5872 5871 5869 5868 5867 5865 5864 5863 5862 5861 5860 5859 5858 5858 5857 5857
5888 5887 5887 5886 5886 5886 5885 5885 5884 5884 5884 5883 5883 5883 5882 5881 5880 5880 5879 5878 5878 5877 5876 5875 5874 5873 5871 5870 5869 5867 5866 5864 5862 5861 5860 5859 5858 5857 5856 5855 5854 5853 5853
5887 5887 5887 5886 5886 5885 5885 5885 5884 5884 5883 5883 5882 5882 5881 5881 5880 5879 5878 5877 5876 5875 5874 5873 5872 5870 5869 5868 5866 5865 5863 5861 5859 5857 5856 5855 5854 5853 5852 5851 5850 5850 5849
5887 5886 5886 5885 5885 5884 5884 5884 5883 5883 5883 5882 5881 5881 5880 5879 5879 5878 5877 5876 5875 5874 5873 5872 5870 5868 5867 5865 5863 5862 5860 5858 5856 5854 5853 5851 5850 5848 5847 5846 5846 5845 5845
5886 5885 5885 5884 5884 5883 5883 5882 5882 5881 5881 5880 5880 5879 5878 5877 5877 5876 5875 5874 5873 5872 5871 5869 5868 5866 5864 5862 5860 5858 5857 5855 5853 5851 5849 5847 5845 5844 5843 5842 5842 5841 5841
5885 5884 5883 5883 5882 5881 5881 5881 5880 5879 5878 5878 5877 5876 5876 5875 5874 5874 5873 5872 5871 5870 5868 5867 5865 5863 5862 5860 5858 5855 5853 5851 5849 5847 5845 5843 5841 5840 5839 5838 5837 5837 5836
5883 5883 5882 5881 5880 5879 5878 5878 5877 5876 5876 5875 5874 5874 5873 5872 5872 5871 5870 5869 5868 5867 5865 5864 5862 5861 5859 5857 5855 5852 5850 5847 5845 5843 5841 5839 5837 5835 5834 5833 5832 5832 5831
5881 5880 5879 5878 5877 5876 5875 5875 5874 5873 5872 5872 5871 5870 5870 5869 5868 5868 5867 5866 5865 5863 5862 5861 5859 5857 5855 5853 5851 5849 5846 5844 5841 5839 5837 5835 5833 5831 5829 5829 5828 5827 5826
5878 5877 5876 5875 5874 5873 5872 5871 5870 5869 5869 5868 5867 5867 5866 5865 5864 5864 5863 5862 5861 5859 5858 5857 5855 5853 5851 5849 5847 5845 5843 5840 5837 5835 5833 5831 5829 5827 5825 5824 5823 5822 5822
5875 5874 5873 5872 5870 5869 5868 5867 5866 5865 5865 5864 5863 5862 5862 5861 5860 5859 5858 5857 5856 5855 5853 5852 5850 5848 5846 5844 5842 5840 5838 5836 5834 5831 5829 5827 5825 5823 5821 5819 5818 5817 5817
5871 5870 5869 5867 5866 5865 5864 5863 5862 5861 5860 5859 5858 5857 5856 5855 5855 5854 5853 5852 5851 5850 5848 5847 5845 5843 5841 5839 5838 5836 5834 5831 5829 5827 5824 5822 5821 5819 5817 5815 5814 5813 5812
5867 5866 5864 5863 5862 5861 5859 5858 5857 5856 5855 5854 5852 5851 5850 5849 5849 5848 5847 5846 5845 5844 5843 5841 5839 5838 5836 5834 5832 5830 5828 5826 5824 5822 5820 5817 5816 5814 5812 5811 5809 5807 5807
5862 5861 5860 5859 5857 5856 5854 5853 5852 5851 5849 5848 5847 5846 5845 5843 5843 5842 5841 5840 5839 5838 5837 5835 5834 5832 5830 5829 5827 5825 5822 5820 5818 5816 5814 5812 5810 5808 5807 5805 5803 5802 5801
5857 5856 5855 5854 5852 5851 5849 5848 5846 5845 5844 5842 5841 5839 5838 5837 5836 5835 5834 5833 5832 5831 5830 5829 5828 5826 5824 5823 5821 5819 5817 5814 5812 5810 5808 5806 5804 5803 5801 5799 5798 5797 5796
5852 5851 5850 5848 5846 5845 5843 5842 5840 5839 5837 5836 5834 5833 5831 5830 5829 5828 5827 5826 5825 5825 5823 5822 5821 5819 5818 5816 5814 5813 5811 5808 5806 5804 5802 5800 5799 5797 5795 5794 5792 5791 5790
5846 5845 5843 5842 5840 5839 5837 5835 5834 5832 5830 5828 5827 5825 5824 5823 5822 5821 5820 5819 5818 5817 5816 5815 5814 5812 5811 5809 5808 5806 5804 5802 5800 5798 5796 5794 5792 5791 5789 5787 5786 5785 5784
5840 5839 5837 5835 5833 5832 5830 5828 5826 5825 5823 5821 5819 5817 5816 5815 5814 5813 5812 5811 5810 5809 5809 5808 5806 5805 5803 5802 5800 5798 5797 5795 5793 5791 5789 5787 5785 5783 5782 5781 5779 5778 5777
5833 5832 5830 5828 5826 5825 5823 5821 5819 5817 5815 5813 5811 5809 5808 5807 5806 5805 5804 5803 5802 5801 5801 5800 5798 5797 5795 5794 5793 5791 5789 5787 5785 5783 5782 5780 5778 5776 5774 5773 5772 5771 5770
5826 5825 5823 5821 5819 5817 5815 5813 5811 5809 5807 5805 5803 5802 5800 5799 5798 5797 5796 5795 5794 5793 5792 5791 5790 5789 5787 5786 5784 5783 5781 5779 5777 5775 5774 5772 5771 5769 5767 5765 5764 5763 5763
5819 5817 5815 5813 5811 5809 5807 5805 5803 5801 5799 5797 5795 5793 5792 5791 5790 5788 5787 5786 5785 5784 5783 5782 5781 5780 5779 5777 5776 5774 5772 5771 5769 5767 5765 5764 5762 5761 5759 5757 5756 5755 5754
5810 5809 5807 5805 5803 5801 5799 5797 5795 5793 5791 5789 5787 5785 5783 5782 5781 5779 5778 5777 5776 5775 5774 5773 5772 5770 5769 5768 5766 5765 5763 5761 5760 5758 5756 5755 5754 5752 5751 5750 5748 5747 5747